When you browse on this site, cookies collect data to enhance your experience and personalize the content and advertising you see.
Visit our Privacy Policy to learn more. By continuing to use the site, you agree to this use of cookies and data.
  • In Österreich
  • Länderverzeichnis
  • Für 7 Tage
  • Wassertemperatur
  • Wetterkarte
  • News
  • Widgets
  • user-avatar
    Anmelden

    Stündliche Wetter Manta

    Heute, 22 September, Sonntag

    Zeit Temperatur Niederschläge Wind Luftdruck Luftfeuchtigkeit
    00:00 +12°C° 0 mm 1 m/S 584 mmHg 91%
    01:00 +12°C° 0 mm 1 m/S 584 mmHg 90%
    02:00 +12°C° 0 mm 1 m/S 584 mmHg 90%
    03:00 +12°C° 0 mm 1 m/S 584 mmHg 90%
    04:00 +12°C° 0 mm 1 m/S 584 mmHg 91%
    05:00 +13°C° 0 mm 1 m/S 584 mmHg 88%
    06:00 +13°C° 0 mm 1 m/S 585 mmHg 86%
    07:00 +13°C° 0 mm 0 m/S 586 mmHg 84%
    08:00 +16°C° 0 mm 1 m/S 587 mmHg 78%
    09:00 +18°C° 0 mm 1 m/S 588 mmHg 73%
    10:00 +19°C° 0 mm 2 m/S 588 mmHg 67%
    11:00 +19°C° 0.3 mm 2 m/S 588 mmHg 68%
    12:00 +19°C° 0.3 mm 2 m/S 587 mmHg 69%
    13:00 +19°C° 0.3 mm 2 m/S 586 mmHg 70%
    14:00 +19°C° 0.3 mm 2 m/S 586 mmHg 70%
    15:00 +20°C° 0.3 mm 2 m/S 586 mmHg 69%
    16:00 +20°C° 0.3 mm 2 m/S 585 mmHg 69%
    17:00 +19°C° 0.3 mm 1 m/S 585 mmHg 78%
    18:00 +16°C° 0.3 mm 1 m/S 584 mmHg 88%
    19:00 +13°C° 0.3 mm 0 m/S 584 mmHg 98%
    20:00 +12°C° 0.1 mm 0 m/S 584 mmHg 98%
    21:00 +12°C° 0.1 mm 0 m/S 585 mmHg 97%
    22:00 +12°C° 0.1 mm 0 m/S 585 mmHg 97%
    23:00 +13°C° 0 mm 1 m/S 585 mmHg 97%

    Morgen, 23 September, Montag

    Zeit Temperatur Niederschläge Wind Luftdruck Luftfeuchtigkeit
    00:00 +12°C° 0 mm 1 m/S 584 mmHg 96%
    01:00 +12°C° 0 mm 1 m/S 584 mmHg 95%
    02:00 +12°C° 0 mm 1 m/S 584 mmHg 94%
    03:00 +12°C° 0 mm 1 m/S 584 mmHg 94%
    04:00 +12°C° 0 mm 1 m/S 584 mmHg 93%
    05:00 +13°C° 0.1 mm 1 m/S 585 mmHg 91%
    06:00 +13°C° 0.1 mm 1 m/S 585 mmHg 90%
    07:00 +14°C° 0.1 mm 1 m/S 586 mmHg 88%
    08:00 +16°C° 0 mm 1 m/S 587 mmHg 77%
    09:00 +20°C° 0 mm 1 m/S 588 mmHg 66%
    10:00 +23°C° 0 mm 2 m/S 589 mmHg 55%
    11:00 +21°C° 0.3 mm 2 m/S 589 mmHg 59%
    12:00 +21°C° 0.3 mm 2 m/S 588 mmHg 62%
    13:00 +21°C° 0.3 mm 2 m/S 587 mmHg 66%
    14:00 +20°C° 0.7 mm 2 m/S 586 mmHg 73%
    15:00 +19°C° 0.7 mm 2 m/S 585 mmHg 80%
    16:00 +19°C° 0.7 mm 1 m/S 585 mmHg 87%
    17:00 +16°C° 0.2 mm 1 m/S 584 mmHg 91%
    18:00 +15°C° 0.2 mm 1 m/S 584 mmHg 94%
    19:00 +13°C° 0.2 mm 0 m/S 583 mmHg 98%
    20:00 +12°C° 0 mm 0 m/S 584 mmHg 97%
    21:00 +13°C° 0 mm 1 m/S 584 mmHg 97%
    22:00 +13°C° 0 mm 1 m/S 584 mmHg 96%
    23:00 +12°C° 0 mm 1 m/S 584 mmHg 96%

    übermorgen, 24 September, Dienstag

    Zeit Temperatur Niederschläge Wind Luftdruck Luftfeuchtigkeit
    00:00 +12°C° 0 mm 1 m/S 584 mmHg 95%
    01:00 +12°C° 0 mm 1 m/S 584 mmHg 95%
    02:00 +11°C° 0 mm 1 m/S 583 mmHg 94%
    03:00 +11°C° 0 mm 1 m/S 583 mmHg 93%
    04:00 +11°C° 0 mm 1 m/S 583 mmHg 93%
    05:00 +12°C° 0 mm 1 m/S 584 mmHg 91%
    06:00 +13°C° 0 mm 1 m/S 585 mmHg 89%
    07:00 +12°C° 0 mm 0 m/S 586 mmHg 87%
    08:00 +16°C° 0 mm 1 m/S 587 mmHg 76%
    09:00 +20°C° 0 mm 1 m/S 588 mmHg 65%
    10:00 +23°C° 0 mm 1 m/S 589 mmHg 54%
    11:00 +21°C° 0.3 mm 2 m/S 589 mmHg 60%
    12:00 +21°C° 0.3 mm 2 m/S 588 mmHg 65%
    13:00 +20°C° 0.3 mm 2 m/S 587 mmHg 71%
    14:00 +19°C° 0.7 mm 2 m/S 586 mmHg 77%
    15:00 +18°C° 0.7 mm 2 m/S 585 mmHg 84%
    16:00 +18°C° 0.7 mm 1 m/S 584 mmHg 91%
    17:00 +16°C° 0.4 mm 1 m/S 584 mmHg 94%
    18:00 +15°C° 0.4 mm 1 m/S 584 mmHg 96%
    19:00 +13°C° 0.4 mm 0 m/S 584 mmHg 98%
    20:00 +13°C° 0.1 mm 0 m/S 584 mmHg 98%
    21:00 +13°C° 0.1 mm 0 m/S 585 mmHg 97%
    22:00 +13°C° 0.1 mm 1 m/S 585 mmHg 97%
    23:00 +12°C° 0 mm 0 m/S 585 mmHg 97%

    25 September, Mittwoch

    Zeit Temperatur Niederschläge Wind Luftdruck Luftfeuchtigkeit
    00:00 +12°C° 0 mm 0 m/S 585 mmHg 96%
    01:00 +12°C° 0 mm 0 m/S 585 mmHg 96%
    02:00 +12°C° 0 mm 0 m/S 584 mmHg 95%
    03:00 +12°C° 0 mm 0 m/S 584 mmHg 95%
    04:00 +12°C° 0 mm 0 m/S 584 mmHg 94%
    05:00 +12°C° 0 mm 0 m/S 585 mmHg 93%
    06:00 +13°C° 0 mm 0 m/S 586 mmHg 92%
    07:00 +13°C° 0 mm 0 m/S 586 mmHg 91%
    08:00 +15°C° 0.2 mm 1 m/S 587 mmHg 88%
    09:00 +16°C° 0.2 mm 1 m/S 587 mmHg 86%
    10:00 +18°C° 0.2 mm 1 m/S 588 mmHg 83%
    11:00 +19°C° 0.6 mm 1 m/S 587 mmHg 81%
    12:00 +19°C° 0.6 mm 2 m/S 587 mmHg 79%
    13:00 +19°C° 0.6 mm 2 m/S 586 mmHg 77%
    14:00 +19°C° 0.8 mm 2 m/S 586 mmHg 81%
    15:00 +18°C° 0.8 mm 2 m/S 585 mmHg 84%
    16:00 +18°C° 0.8 mm 2 m/S 585 mmHg 88%
    17:00 +16°C° 0.4 mm 1 m/S 585 mmHg 91%
    18:00 +15°C° 0.4 mm 1 m/S 584 mmHg 94%
    19:00 +13°C° 0.4 mm 0 m/S 584 mmHg 97%
    20:00 +12°C° 0 mm 0 m/S 584 mmHg 97%
    21:00 +12°C° 0 mm 0 m/S 585 mmHg 97%
    22:00 +12°C° 0 mm 0 m/S 585 mmHg 96%
    23:00 +13°C° 0 mm 1 m/S 585 mmHg 96%

    26 September, Donnerstag

    Zeit Temperatur Niederschläge Wind Luftdruck Luftfeuchtigkeit
    00:00 +12°C° 0 mm 1 m/S 584 mmHg 96%
    01:00 +12°C° 0 mm 1 m/S 584 mmHg 95%
    02:00 +12°C° 0 mm 1 m/S 584 mmHg 95%
    03:00 +12°C° 0 mm 1 m/S 584 mmHg 94%
    04:00 +12°C° 0 mm 1 m/S 583 mmHg 94%
    05:00 +13°C° 0 mm 1 m/S 584 mmHg 91%
    06:00 +13°C° 0 mm 1 m/S 585 mmHg 89%
    07:00 +14°C° 0 mm 1 m/S 586 mmHg 87%
    08:00 +16°C° 0 mm 1 m/S 587 mmHg 75%
    09:00 +19°C° 0 mm 2 m/S 588 mmHg 62%
    10:00 +21°C° 0 mm 3 m/S 589 mmHg 50%
    11:00 +21°C° 0 mm 3 m/S 589 mmHg 48%
    12:00 +22°C° 0 mm 3 m/S 588 mmHg 46%
    13:00 +22°C° 0 mm 3 m/S 587 mmHg 45%
    14:00 +21°C° 0 mm 3 m/S 587 mmHg 50%
    15:00 +20°C° 0 mm 3 m/S 586 mmHg 55%
    16:00 +20°C° 0 mm 2 m/S 585 mmHg 60%
    17:00 +17°C° 0.1 mm 2 m/S 585 mmHg 72%
    18:00 +15°C° 0.1 mm 1 m/S 584 mmHg 84%
    19:00 +12°C° 0.1 mm 0 m/S 583 mmHg 96%
    20:00 +13°C° 0 mm 1 m/S 584 mmHg 94%
    21:00 +12°C° 0 mm 1 m/S 584 mmHg 93%
    22:00 +12°C° 0 mm 1 m/S 584 mmHg 92%
    23:00 +12°C° 0 mm 1 m/S 584 mmHg 89%

    27 September, Freitag

    Zeit Temperatur Niederschläge Wind Luftdruck Luftfeuchtigkeit
    00:00 +12°C° 0 mm 1 m/S 584 mmHg 87%
    01:00 +12°C° 0 mm 1 m/S 583 mmHg 85%
    02:00 +12°C° 0 mm 1 m/S 583 mmHg 83%
    03:00 +12°C° 0 mm 1 m/S 583 mmHg 81%
    04:00 +11°C° 0 mm 1 m/S 583 mmHg 79%
    05:00 +12°C° 0 mm 1 m/S 584 mmHg 76%
    06:00 +13°C° 0 mm 1 m/S 585 mmHg 72%
    07:00 +13°C° 0 mm 0 m/S 586 mmHg 69%
    08:00 +18°C° 0 mm 1 m/S 587 mmHg 63%
    09:00 +19°C° 0 mm 2 m/S 588 mmHg 57%
    10:00 +21°C° 0 mm 2 m/S 589 mmHg 51%
    11:00 +21°C° 0 mm 2 m/S 589 mmHg 51%
    12:00 +22°C° 0 mm 3 m/S 588 mmHg 50%
    13:00 +24°C° 0 mm 3 m/S 588 mmHg 50%
    14:00 +21°C° 0.4 mm 3 m/S 587 mmHg 59%
    15:00 +20°C° 0.4 mm 3 m/S 586 mmHg 69%
    16:00 +18°C° 0.4 mm 2 m/S 585 mmHg 78%
    17:00 +17°C° 0.2 mm 2 m/S 585 mmHg 85%
    18:00 +16°C° 0.2 mm 1 m/S 584 mmHg 92%
    19:00 +13°C° 0.2 mm 0 m/S 584 mmHg 98%
    20:00 +13°C° 0 mm 0 m/S 584 mmHg 98%
    21:00 +14°C° 0 mm 1 m/S 585 mmHg 97%
    22:00 +13°C° 0 mm 1 m/S 585 mmHg 96%
    23:00 +13°C° 0 mm 1 m/S 584 mmHg 95%
    Mehr zeigen